{"data":{"norad_id":58055,"epoch":"2026-09-20T08:16:41.939904Z","epoch_age_seconds":151050,"freshness":"FRESH","line1":"1 58055U 23158E   26263.34492986 -.00000348  00000+0 -31245-5 0  9992","line2":"2 58055  43.0070   7.4251 0002058 274.1278  85.9339 15.27575060163346","mean_motion":15.2757506,"eccentricity":0.0002058,"inclination_deg":43.007,"raan_deg":7.4251,"arg_perigee_deg":274.1278,"mean_anomaly_deg":85.9339,"bstar":-3.1245e-6,"rev_number":16334,"period_min":94.267053561348,"perigee_km":481.65185307388,"apogee_km":484.47592335947,"semimajor_km":6861.2008882167,"source":"CELESTRAK","updated_at":"2026-09-21T09:00:33.777736Z"}}